NORTHERN NASSAU  -  Coastal Flood Statement Coastal Flood Statement     Rip Current Statement Rip Current Statement        SOUTHERN NASSAU  -  Coastal Flood Statement Coastal Flood Statement     Rip Current Statement Rip Current Statement        SOUTHERN QUEENS  -  Coastal Flood Statement Coastal Flood Statement     Rip Current Statement Rip Current Statement        NORTHEAST SUFFOLK  -  Rip Current Statement Rip Current Statement        NORTHWEST SUFFOLK  -  Rip Current Statement Rip Current Statement        SOUTHEAST SUFFOLK  -  Rip Current Statement Rip Current Statement        SOUTHWEST SUFFOLK  -  Rip Current Statement Rip Current Statement      

Active alerts

Southern Queens
  Details for Southern Queens Coastal Flood Statement  +1 additional alert
Northern Nassau
  Details for Northern Nassau Coastal Flood Statement  +1 additional alert
Southern Nassau
  Details for Southern Nassau Coastal Flood Statement  +1 additional alert
Northwest Suffolk
  Details for Northwest Suffolk Rip Current Statement
Southwest Suffolk
  Details for Southwest Suffolk Rip Current Statement
Northeast Suffolk
  Details for Northeast Suffolk Rip Current Statement
Southeast Suffolk
  Details for Southeast Suffolk Rip Current Statement


WXM80 ListenWXM80 Stop

You find our weather info also at:

UK Metoffice

WeatherCloud

Weather Underground

Northeastern Weather Network

AWEKAS

Citizen Weather Observer Program (CWOP)

HAMweather, WeatherForYou, PWS Weather


Weather Underground History page Text

Daily Summary for March 30, 2017 Units:  English    Metric   Both
« Previous Day
Next Day »
Daily Weekly Monthly Yearly Custom
  High: Low: Average:
Temperature: 54.0 °F 36.5 °F 43.8 °F
Dew Point: 35.7 °F 26.6 °F 30.1 °F
Humidity: 78 % 36 % 60 %
Wind Speed: 8.9 mph 0.0 mph 2.8 mph
Wind Gust: 13.8 mph - -
Wind:- - SSW
Pressure: 30.25 in 30.08 in -
Precipitation: 0.00 in    
Historical Graphs
 
 
Tabular Data for March 30, 2017
Time Temperature Dew Point Pressure Wind Wind Speed Wind Gust Humidity Rainfall Rate (Hourly)
00:01 41.0 °F 28.6 °F 30.20 in NNE 8.4 mph 13.8 mph 61 % 0.00 in
00:06 41.0 °F 28.2 °F 30.20 in NE 8.9 mph 11.5 mph 60 % 0.00 in
00:11 41.0 °F 28.2 °F 30.21 in NNE 5.8 mph 9.2 mph 60 % 0.00 in
00:16 41.0 °F 29.0 °F 30.21 in NNE 3.4 mph 5.8 mph 62 % 0.00 in
00:21 40.9 °F 29.3 °F 30.21 in NE 3.0 mph 6.9 mph 63 % 0.00 in
00:26 40.8 °F 29.6 °F 30.21 in NNE 5.9 mph 8.1 mph 64 % 0.00 in
00:31 40.6 °F 28.6 °F 30.21 in NNE 6.5 mph 10.4 mph 62 % 0.00 in
00:36 40.5 °F 28.5 °F 30.21 in North 3.8 mph 10.4 mph 62 % 0.00 in
00:41 40.5 °F 29.3 °F 30.21 in NE 5.1 mph 5.8 mph 64 % 0.00 in
00:46 40.4 °F 29.6 °F 30.21 in NNE 3.3 mph 5.8 mph 65 % 0.00 in
00:51 40.3 °F 29.5 °F 30.20 in NNE 4.2 mph 5.0 mph 65 % 0.00 in
00:56 40.2 °F 29.7 °F 30.19 in NNE 5.1 mph 6.9 mph 66 % 0.00 in
01:01 40.0 °F 29.9 °F 30.19 in NNE 4.8 mph 6.9 mph 67 % 0.00 in
01:06 39.9 °F 29.8 °F 30.19 in NE 0.7 mph 3.5 mph 67 % 0.00 in
01:12 39.8 °F 30.1 °F 30.19 in NE 2.3 mph 3.5 mph 68 % 0.00 in
01:17 39.7 °F 30.4 °F 30.20 in NE 2.6 mph 3.5 mph 69 % 0.00 in
01:22 39.6 °F 30.6 °F 30.20 in NNE 2.1 mph 4.0 mph 70 % 0.00 in
01:27 39.4 °F 30.4 °F 30.20 in North 0.2 mph 2.3 mph 70 % 0.00 in
01:32 39.3 °F 30.0 °F 30.20 in North 0.1 mph 1.2 mph 69 % 0.00 in
01:37 39.1 °F 30.1 °F 30.19 in North 2.1 mph 3.5 mph 70 % 0.00 in
01:42 38.9 °F 30.3 °F 30.18 in North 1.9 mph 4.6 mph 71 % 0.00 in
01:47 38.8 °F 30.2 °F 30.19 in Calm   1.2 mph 71 % 0.00 in
01:52 38.5 °F 29.9 °F 30.19 in NE 0.1 mph 1.2 mph 71 % 0.00 in
01:57 38.4 °F 30.2 °F 30.18 in NE 1.3 mph 3.5 mph 72 % 0.00 in
02:02 38.3 °F 30.4 °F 30.18 in NNW 2.4 mph 3.5 mph 73 % 0.00 in
02:07 38.1 °F 30.5 °F 30.18 in NNE 2.6 mph 5.0 mph 74 % 0.00 in
02:12 38.0 °F 29.8 °F 30.18 in North 2.2 mph 4.6 mph 72 % 0.00 in
02:17 37.9 °F 29.7 °F 30.18 in North 0.9 mph 2.3 mph 72 % 0.00 in
02:22 37.9 °F 30.0 °F 30.17 in North 1.9 mph 4.6 mph 73 % 0.00 in
02:27 37.8 °F 29.9 °F 30.17 in North 1.0 mph 5.0 mph 73 % 0.00 in
02:32 37.8 °F 29.6 °F 30.17 in Calm   4.0 mph 72 % 0.00 in
02:37 37.8 °F 29.9 °F 30.17 in NNW 0.7 mph 2.3 mph 73 % 0.00 in
02:42 37.7 °F 29.8 °F 30.17 in North 3.0 mph 4.6 mph 73 % 0.00 in
02:47 37.7 °F 29.5 °F 30.17 in NNE 3.9 mph 7.0 mph 72 % 0.00 in
02:52 37.7 °F 29.1 °F 30.16 in NNE 3.6 mph 5.8 mph 71 % 0.00 in
02:57 37.7 °F 29.1 °F 30.17 in NNE 2.5 mph 4.6 mph 71 % 0.00 in
03:02 37.6 °F 29.0 °F 30.17 in North 3.0 mph 7.0 mph 71 % 0.00 in
03:07 37.6 °F 29.4 °F 30.16 in North 1.0 mph 3.0 mph 72 % 0.00 in
03:12 37.6 °F 29.7 °F 30.17 in Calm   6.0 mph 73 % 0.00 in
03:17 37.6 °F 29.7 °F 30.17 in NW 1.0 mph 2.0 mph 73 % 0.00 in
03:22 37.5 °F 29.2 °F 30.17 in NNW 2.0 mph 6.0 mph 72 % 0.00 in
03:27 37.4 °F 29.2 °F 30.16 in North 1.0 mph 6.0 mph 72 % 0.00 in
03:32 37.3 °F 29.1 °F 30.16 in North 1.0 mph 3.0 mph 72 % 0.00 in
03:37 37.3 °F 29.1 °F 30.17 in NNE 0.2 mph 1.2 mph 72 % 0.00 in
03:42 37.3 °F 29.1 °F 30.17 in NNE 1.1 mph 3.5 mph 72 % 0.00 in
03:47 37.2 °F 29.3 °F 30.17 in North 1.5 mph 3.5 mph 73 % 0.00 in
03:52 37.1 °F 29.2 °F 30.17 in NNW 1.2 mph 2.3 mph 73 % 0.00 in
03:57 37.1 °F 29.2 °F 30.18 in North 0.5 mph 2.3 mph 73 % 0.00 in
04:02 37.0 °F 28.8 °F 30.18 in NNW 1.0 mph 5.8 mph 72 % 0.00 in
04:07 37.0 °F 28.5 °F 30.18 in North 4.6 mph 9.0 mph 71 % 0.00 in
04:12 37.0 °F 28.5 °F 30.18 in NE 3.1 mph 5.0 mph 71 % 0.00 in
04:17 37.0 °F 28.5 °F 30.19 in NNW 0.6 mph 3.5 mph 71 % 0.00 in
04:22 37.0 °F 28.8 °F 30.19 in NW 3.0 mph 5.0 mph 72 % 0.00 in
04:23 37.0 °F 28.5 °F 30.19 in NW 2.4 mph 4.6 mph 71 % 0.00 in
04:28 37.0 °F 28.8 °F 30.19 in NW 2.3 mph 4.0 mph 72 % 0.00 in
04:33 37.0 °F 29.1 °F 30.19 in WNW 3.1 mph 5.8 mph 73 % 0.00 in
04:38 37.0 °F 29.1 °F 30.19 in NW 1.6 mph 5.0 mph 73 % 0.00 in
04:44 36.9 °F 29.1 °F 30.19 in NW 1.6 mph 4.6 mph 73 % 0.00 in
04:49 36.9 °F 29.1 °F 30.19 in NW 2.4 mph 5.8 mph 73 % 0.00 in
04:54 36.9 °F 29.1 °F 30.20 in NW 2.7 mph 3.5 mph 73 % 0.00 in
04:59 36.8 °F 29.0 °F 30.20 in NW 2.0 mph 3.5 mph 73 % 0.00 in
05:04 36.8 °F 28.6 °F 30.20 in WNW 2.8 mph 6.0 mph 72 % 0.00 in
05:09 36.8 °F 29.0 °F 30.21 in NW 3.0 mph 5.8 mph 73 % 0.00 in
05:14 36.8 °F 29.0 °F 30.20 in NW 2.9 mph 3.5 mph 73 % 0.00 in
05:19 36.8 °F 29.0 °F 30.21 in WNW 1.4 mph 5.8 mph 73 % 0.00 in
05:24 36.7 °F 28.5 °F 30.21 in NNE 3.9 mph 5.0 mph 72 % 0.00 in
05:29 36.7 °F 28.5 °F 30.21 in NNW 0.5 mph 3.5 mph 72 % 0.00 in
05:34 36.7 °F 28.9 °F 30.21 in North 2.6 mph 9.2 mph 73 % 0.00 in
05:39 36.7 °F 28.5 °F 30.21 in NNW 4.5 mph 7.0 mph 72 % 0.00 in
05:44 36.7 °F 28.5 °F 30.21 in NW 3.0 mph 9.2 mph 72 % 0.00 in
05:49 36.8 °F 28.6 °F 30.22 in NNW 2.8 mph 5.8 mph 72 % 0.00 in
05:54 36.9 °F 28.7 °F 30.22 in North 2.5 mph 8.1 mph 72 % 0.00 in
05:59 36.8 °F 28.6 °F 30.23 in NNW 1.7 mph 5.8 mph 72 % 0.00 in
06:04 36.8 °F 28.6 °F 30.21 in Calm   1.2 mph 72 % 0.00 in
06:09 36.8 °F 28.6 °F 30.21 in NNW 4.2 mph 8.1 mph 72 % 0.00 in
06:14 36.8 °F 28.6 °F 30.21 in NW 4.6 mph 4.6 mph 72 % 0.00 in
06:19 36.8 °F 29.0 °F 30.22 in NNW 0.9 mph 3.5 mph 73 % 0.00 in
06:24 36.7 °F 28.5 °F 30.21 in NW 3.9 mph 6.0 mph 72 % 0.00 in
06:29 36.6 °F 28.8 °F 30.22 in NW 3.1 mph 8.1 mph 73 % 0.00 in
06:34 36.6 °F 28.4 °F 30.22 in NNW 0.9 mph 4.6 mph 72 % 0.00 in
06:40 36.6 °F 28.4 °F 30.22 in North 2.7 mph 5.8 mph 72 % 0.00 in
06:45 36.6 °F 28.1 °F 30.22 in North 5.4 mph 8.1 mph 71 % 0.00 in
06:50 36.5 °F 28.3 °F 30.22 in NW 3.6 mph 5.8 mph 72 % 0.00 in
06:55 36.5 °F 28.0 °F 30.22 in NNW 5.6 mph 11.5 mph 71 % 0.00 in
07:00 36.6 °F 28.1 °F 30.23 in North 2.5 mph 8.1 mph 71 % 0.00 in
07:05 36.8 °F 27.9 °F 30.24 in NNW 2.1 mph 5.8 mph 70 % 0.00 in
07:10 36.8 °F 27.9 °F 30.24 in North 2.5 mph 3.5 mph 70 % 0.00 in
07:15 37.0 °F 27.8 °F 30.24 in NNW 6.0 mph 11.5 mph 69 % 0.00 in
07:20 37.1 °F 27.9 °F 30.25 in North 4.2 mph 5.8 mph 69 % 0.00 in
07:25 37.2 °F 28.0 °F 30.24 in WNW 3.5 mph 6.9 mph 69 % 0.00 in
07:30 37.4 °F 28.2 °F 30.25 in NW 3.0 mph 8.1 mph 69 % 0.00 in
07:35 37.5 °F 28.2 °F 30.25 in NW 4.3 mph 8.1 mph 69 % 0.00 in
07:40 37.7 °F 28.4 °F 30.25 in NW 2.9 mph 5.8 mph 69 % 0.00 in
07:45 37.9 °F 28.6 °F 30.25 in NNW 2.8 mph 6.0 mph 69 % 0.00 in
07:50 38.2 °F 28.6 °F 30.25 in NNW 4.6 mph 9.2 mph 68 % 0.00 in
07:55 38.5 °F 28.5 °F 30.24 in North 5.8 mph 8.1 mph 67 % 0.00 in
08:00 38.7 °F 28.7 °F 30.24 in NW 4.7 mph 8.1 mph 67 % 0.00 in
08:05 39.1 °F 28.3 °F 30.25 in NNW 3.2 mph 6.0 mph 65 % 0.00 in
08:10 39.3 °F 28.9 °F 30.25 in NW 3.4 mph 5.8 mph 66 % 0.00 in
08:15 39.5 °F 28.3 °F 30.25 in North 3.7 mph 8.1 mph 64 % 0.00 in
08:20 39.8 °F 28.6 °F 30.25 in North 3.9 mph 6.0 mph 64 % 0.00 in
08:25 40.0 °F 28.4 °F 30.25 in North 3.4 mph 5.8 mph 63 % 0.00 in
08:30 40.4 °F 29.2 °F 30.25 in NNW 4.1 mph 9.2 mph 64 % 0.00 in
08:35 40.6 °F 29.0 °F 30.24 in NNW 4.1 mph 9.2 mph 63 % 0.00 in
08:40 40.8 °F 28.8 °F 30.23 in NNW 4.6 mph 8.1 mph 62 % 0.00 in
08:45 41.1 °F 29.5 °F 30.24 in NNE 4.1 mph 5.8 mph 63 % 0.00 in
08:51 41.4 °F 29.7 °F 30.24 in North 3.5 mph 5.8 mph 63 % 0.00 in
08:56 41.6 °F 29.5 °F 30.23 in North 1.0 mph 2.3 mph 62 % 0.00 in
09:01 41.5 °F 29.0 °F 30.23 in NNE 3.2 mph 4.6 mph 61 % 0.00 in
09:06 41.8 °F 29.7 °F 30.23 in NNE 2.4 mph 4.0 mph 62 % 0.00 in
09:11 42.3 °F 29.4 °F 30.23 in North 5.4 mph 8.1 mph 60 % 0.00 in
09:16 42.4 °F 28.7 °F 30.23 in NNE 4.6 mph 7.0 mph 58 % 0.00 in
09:21 42.4 °F 28.7 °F 30.23 in NNE 3.6 mph 5.8 mph 58 % 0.00 in
09:26 42.7 °F 29.4 °F 30.23 in NE 4.4 mph 6.9 mph 59 % 0.00 in
09:31 43.3 °F 30.7 °F 30.22 in NE 2.5 mph 4.6 mph 61 % 0.00 in
09:36 43.6 °F 29.4 °F 30.23 in NE 4.7 mph 7.0 mph 57 % 0.00 in
09:41 43.6 °F 29.4 °F 30.24 in NNW 3.9 mph 6.0 mph 57 % 0.00 in
09:46 44.0 °F 30.6 °F 30.24 in NNE 3.2 mph 5.8 mph 59 % 0.00 in
09:51 44.6 °F 30.7 °F 30.23 in NE 4.9 mph 8.1 mph 58 % 0.00 in
09:56 45.0 °F 30.7 °F 30.23 in North 3.8 mph 4.6 mph 57 % 0.00 in
10:01 45.4 °F 30.2 °F 30.24 in NNW 3.2 mph 8.1 mph 55 % 0.00 in
10:06 45.5 °F 29.8 °F 30.24 in NNW 5.6 mph 9.2 mph 54 % 0.00 in
10:11 45.6 °F 29.0 °F 30.24 in North 4.2 mph 10.4 mph 52 % 0.00 in
10:16 46.0 °F 30.7 °F 30.23 in North 3.5 mph 5.8 mph 55 % 0.00 in
10:22 46.2 °F 30.0 °F 30.24 in NNE 5.3 mph 7.0 mph 53 % 0.00 in
10:27 46.4 °F 29.7 °F 30.23 in East 2.8 mph 5.0 mph 52 % 0.00 in
10:32 47.0 °F 31.2 °F 30.23 in North 5.4 mph 6.9 mph 54 % 0.00 in
10:37 47.4 °F 30.2 °F 30.23 in NNE 3.6 mph 4.6 mph 51 % 0.00 in
10:42 47.7 °F 30.4 °F 30.23 in NNE 3.9 mph 6.0 mph 51 % 0.00 in
10:47 47.6 °F 30.3 °F 30.23 in ENE 4.7 mph 6.9 mph 51 % 0.00 in
10:52 47.4 °F 31.1 °F 30.23 in ENE 3.3 mph 6.9 mph 53 % 0.00 in
10:57 47.6 °F 29.9 °F 30.22 in NE 2.9 mph 6.0 mph 50 % 0.00 in
11:02 46.8 °F 28.6 °F 30.23 in ENE 3.4 mph 4.6 mph 49 % 0.00 in
11:07 46.8 °F 29.6 °F 30.22 in NE 2.3 mph 4.6 mph 51 % 0.00 in
11:12 46.8 °F 28.6 °F 30.21 in ENE 1.1 mph 3.5 mph 49 % 0.00 in
11:17 47.0 °F 29.3 °F 30.21 in NE 1.3 mph 3.5 mph 50 % 0.00 in
11:22 47.2 °F 28.0 °F 30.21 in ENE 1.8 mph 6.9 mph 47 % 0.00 in
11:27 47.2 °F 29.5 °F 30.21 in ENE 3.0 mph 4.0 mph 50 % 0.00 in
11:32 47.7 °F 30.0 °F 30.21 in NNE 2.0 mph 5.0 mph 50 % 0.00 in
11:37 47.9 °F 29.6 °F 30.20 in NE 3.0 mph 5.0 mph 49 % 0.00 in
11:42 47.1 °F 27.9 °F 30.19 in ENE 3.0 mph 5.0 mph 47 % 0.00 in
11:47 46.3 °F 26.6 °F 30.19 in East 2.0 mph 5.0 mph 46 % 0.00 in
11:52 46.1 °F 28.5 °F 30.19 in East 2.0 mph 5.0 mph 50 % 0.00 in
11:57 46.2 °F 27.1 °F 30.19 in NE 3.7 mph 5.0 mph 47 % 0.00 in
12:02 46.2 °F 27.6 °F 30.19 in ENE 3.0 mph 7.0 mph 48 % 0.00 in
12:07 46.6 °F 28.4 °F 30.20 in ENE 2.0 mph 5.0 mph 49 % 0.00 in
12:12 46.8 °F 28.1 °F 30.19 in ENE 2.0 mph 6.0 mph 48 % 0.00 in
12:17 47.5 °F 29.2 °F 30.19 in ENE 1.0 mph 3.0 mph 49 % 0.00 in
12:22 48.3 °F 30.5 °F 30.20 in ENE 2.0 mph 5.0 mph 50 % 0.00 in
12:27 49.3 °F 31.5 °F 30.19 in North 3.0 mph 6.0 mph 50 % 0.00 in
12:32 49.7 °F 29.2 °F 30.20 in NW 1.0 mph 6.0 mph 45 % 0.00 in
12:37 50.0 °F 32.1 °F 30.19 in SSE 1.3 mph 4.6 mph 50 % 0.00 in
12:42 51.1 °F 31.6 °F 30.19 in SW 0.9 mph 4.0 mph 47 % 0.00 in
12:47 51.6 °F 30.9 °F 30.19 in SW 5.0 mph 8.0 mph 45 % 0.00 in
12:52 51.5 °F 29.7 °F 30.19 in WSW 5.0 mph 10.0 mph 43 % 0.00 in
12:57 51.7 °F 30.5 °F 30.18 in WSW 4.0 mph 6.9 mph 44 % 0.00 in
13:03 52.0 °F 29.6 °F 30.18 in SW 6.4 mph 8.1 mph 42 % 0.00 in
13:08 51.7 °F 29.9 °F 30.17 in SW 4.2 mph 5.8 mph 43 % 0.00 in
13:13 51.7 °F 28.1 °F 30.17 in WSW 5.1 mph 6.9 mph 40 % 0.00 in
13:18 52.0 °F 29.0 °F 30.17 in WSW 4.2 mph 8.1 mph 41 % 0.00 in
13:23 52.1 °F 29.1 °F 30.18 in SSW 3.9 mph 6.0 mph 41 % 0.00 in
13:28 52.0 °F 28.4 °F 30.17 in WSW 7.3 mph 9.0 mph 40 % 0.00 in
13:33 51.7 °F 29.3 °F 30.17 in NW 2.7 mph 5.8 mph 42 % 0.00 in
13:38 51.7 °F 28.7 °F 30.17 in SSW 2.8 mph 6.0 mph 41 % 0.00 in
13:43 51.9 °F 29.5 °F 30.17 in NW 0.3 mph 3.5 mph 42 % 0.00 in
13:48 51.7 °F 27.5 °F 30.16 in SSW 1.2 mph 6.0 mph 39 % 0.00 in
13:53 51.7 °F 29.3 °F 30.16 in WNW 2.2 mph 3.5 mph 42 % 0.00 in
13:58 51.7 °F 27.5 °F 30.16 in NNW 2.0 mph 5.8 mph 39 % 0.00 in
14:03 51.8 °F 28.8 °F 30.16 in WNW 2.4 mph 4.0 mph 41 % 0.00 in
14:08 52.1 °F 29.1 °F 30.16 in SW 3.4 mph 5.8 mph 41 % 0.00 in
14:13 52.7 °F 28.4 °F 30.16 in SSW 2.3 mph 6.9 mph 39 % 0.00 in
14:19 53.1 °F 29.4 °F 30.16 in SW 3.0 mph 4.0 mph 40 % 0.00 in
14:24 53.3 °F 29.6 °F 30.16 in WNW 1.5 mph 3.5 mph 40 % 0.00 in
14:29 53.4 °F 29.7 °F 30.16 in North 2.4 mph 4.6 mph 40 % 0.00 in
14:34 54.0 °F 29.6 °F 30.16 in West 4.2 mph 7.0 mph 39 % 0.00 in
14:39 54.0 °F 29.6 °F 30.16 in WNW 0.3 mph 3.5 mph 39 % 0.00 in
14:44 54.0 °F 29.6 °F 30.16 in WSW 3.3 mph 5.0 mph 39 % 0.00 in
14:49 53.7 °F 28.7 °F 30.16 in SSW 3.1 mph 5.8 mph 38 % 0.00 in
14:54 53.5 °F 29.1 °F 30.16 in West 4.3 mph 6.9 mph 39 % 0.00 in
14:59 53.4 °F 28.4 °F 30.16 in WNW 3.3 mph 5.8 mph 38 % 0.00 in
15:04 53.3 °F 27.7 °F 30.15 in WSW 4.4 mph 7.0 mph 37 % 0.00 in
15:09 53.0 °F 27.4 °F 30.15 in SW 3.4 mph 5.8 mph 37 % 0.00 in
15:14 52.9 °F 28.0 °F 30.15 in West 2.8 mph 6.9 mph 38 % 0.00 in
15:19 53.0 °F 28.7 °F 30.15 in South 2.1 mph 3.0 mph 39 % 0.00 in
15:24 53.2 °F 28.2 °F 30.15 in West 1.8 mph 5.8 mph 38 % 0.00 in
15:29 53.3 °F 27.7 °F 30.15 in WSW 2.9 mph 5.8 mph 37 % 0.00 in
15:34 53.2 °F 27.6 °F 30.15 in WNW 2.6 mph 5.8 mph 37 % 0.00 in
15:39 52.9 °F 26.6 °F 30.15 in WNW 1.0 mph 4.6 mph 36 % 0.00 in
15:45 52.6 °F 27.0 °F 30.14 in NW 2.3 mph 3.5 mph 37 % 0.00 in
15:50 52.3 °F 27.4 °F 30.14 in West 2.7 mph 4.6 mph 38 % 0.00 in
15:55 52.2 °F 28.0 °F 30.14 in WNW 3.0 mph 5.8 mph 39 % 0.00 in
16:00 52.0 °F 27.8 °F 30.14 in WNW 4.7 mph 6.9 mph 39 % 0.00 in
16:05 51.9 °F 28.3 °F 30.14 in WNW 2.8 mph 6.9 mph 40 % 0.00 in
16:10 51.8 °F 27.6 °F 30.14 in West 2.2 mph 3.5 mph 39 % 0.00 in
16:15 51.7 °F 27.5 °F 30.14 in WNW 3.6 mph 5.8 mph 39 % 0.00 in
16:20 51.5 °F 27.3 °F 30.13 in WNW 2.9 mph 4.6 mph 39 % 0.00 in
16:25 51.4 °F 27.2 °F 30.12 in West 0.9 mph 4.0 mph 39 % 0.00 in
16:30 51.4 °F 27.9 °F 30.13 in West 2.1 mph 4.0 mph 40 % 0.00 in
16:31 51.4 °F 28.5 °F 30.13 in WSW 4.4 mph 5.8 mph 41 % 0.00 in
16:37 51.2 °F 27.1 °F 30.12 in West 2.7 mph 3.5 mph 39 % 0.00 in
16:42 51.1 °F 27.6 °F 30.11 in West 2.5 mph 3.5 mph 40 % 0.00 in
16:47 51.1 °F 28.2 °F 30.10 in West 0.2 mph 1.2 mph 41 % 0.00 in
16:52 51.2 °F 29.4 °F 30.10 in Calm   1.2 mph 43 % 0.00 in
16:57 51.2 °F 28.9 °F 30.10 in West 0.2 mph 1.0 mph 42 % 0.00 in
17:02 51.2 °F 27.1 °F 30.09 in Calm     39 % 0.00 in
17:07 51.3 °F 27.8 °F 30.08 in West 0.3 mph 1.2 mph 40 % 0.00 in
17:12 51.4 °F 27.9 °F 30.08 in Calm     40 % 0.00 in
17:17 51.4 °F 30.7 °F 30.09 in SSE 3.6 mph 4.6 mph 45 % 0.00 in
17:22 51.3 °F 31.7 °F 30.09 in SE 0.7 mph 6.0 mph 47 % 0.00 in
17:27 51.2 °F 32.1 °F 30.09 in SE 1.0 mph 4.0 mph 48 % 0.00 in
17:32 50.8 °F 31.2 °F 30.09 in SSE 3.0 mph 12.0 mph 47 % 0.00 in
17:37 50.4 °F 31.9 °F 30.09 in South 3.0 mph 8.0 mph 49 % 0.00 in
17:42 50.0 °F 31.6 °F 30.10 in South 3.0 mph 7.0 mph 49 % 0.00 in
17:47 49.5 °F 31.7 °F 30.09 in SSE 2.0 mph 7.0 mph 50 % 0.00 in
17:52 49.2 °F 32.3 °F 30.09 in South 1.0 mph 5.0 mph 52 % 0.00 in
17:57 48.9 °F 32.5 °F 30.10 in SSW 3.7 mph 5.8 mph 53 % 0.00 in
18:03 48.6 °F 32.2 °F 30.10 in South 4.5 mph 5.8 mph 53 % 0.00 in
18:08 48.3 °F 31.9 °F 30.10 in SSE 3.2 mph 5.8 mph 53 % 0.00 in
18:13 48.0 °F 32.1 °F 30.11 in SSW 6.5 mph 10.4 mph 54 % 0.00 in
18:18 47.6 °F 32.2 °F 30.11 in South 3.7 mph 11.0 mph 55 % 0.00 in
18:23 47.2 °F 31.8 °F 30.11 in SSW 6.8 mph 9.2 mph 55 % 0.00 in
18:28 46.9 °F 32.0 °F 30.12 in SSW 4.1 mph 6.9 mph 56 % 0.00 in
18:33 46.7 °F 31.8 °F 30.11 in South 5.8 mph 11.0 mph 56 % 0.00 in
18:38 46.4 °F 32.0 °F 30.11 in SSE 2.4 mph 4.6 mph 57 % 0.00 in
18:43 46.3 °F 32.3 °F 30.11 in SSW 3.3 mph 5.8 mph 58 % 0.00 in
18:48 46.0 °F 32.0 °F 30.11 in SSW 3.9 mph 6.0 mph 58 % 0.00 in
18:53 45.8 °F 32.3 °F 30.11 in South 3.8 mph 7.0 mph 59 % 0.00 in
18:58 45.5 °F 32.0 °F 30.10 in SSW 3.5 mph 10.4 mph 59 % 0.00 in
19:03 45.2 °F 32.1 °F 30.10 in South 1.5 mph 5.8 mph 60 % 0.00 in
19:08 44.9 °F 31.8 °F 30.10 in SSW 4.0 mph 6.0 mph 60 % 0.00 in
19:13 44.6 °F 32.0 °F 30.10 in South 5.8 mph 7.0 mph 61 % 0.00 in
19:18 44.4 °F 32.2 °F 30.10 in South 1.2 mph 3.0 mph 62 % 0.00 in
19:23 44.3 °F 32.5 °F 30.11 in SSE 4.0 mph 4.6 mph 63 % 0.00 in
19:28 44.1 °F 32.7 °F 30.11 in South 4.2 mph 8.1 mph 64 % 0.00 in
19:33 44.0 °F 32.6 °F 30.10 in South 0.2 mph 3.5 mph 64 % 0.00 in
19:38 43.8 °F 32.4 °F 30.10 in SSW 2.1 mph 6.9 mph 64 % 0.00 in
19:44 43.7 °F 32.7 °F 30.09 in South 4.9 mph 9.0 mph 65 % 0.00 in
19:49 43.6 °F 32.6 °F 30.09 in SSW 5.8 mph 9.2 mph 65 % 0.00 in
19:54 43.5 °F 32.5 °F 30.09 in South 5.4 mph 10.4 mph 65 % 0.00 in
19:59 43.4 °F 32.8 °F 30.10 in South 4.9 mph 9.0 mph 66 % 0.00 in
20:04 43.2 °F 32.2 °F 30.10 in SSW 3.3 mph 4.6 mph 65 % 0.00 in
20:09 43.1 °F 32.1 °F 30.10 in South 5.6 mph 8.1 mph 65 % 0.00 in
20:14 43.1 °F 32.1 °F 30.10 in SSW 5.3 mph 8.1 mph 65 % 0.00 in
20:19 43.0 °F 31.6 °F 30.11 in South 5.8 mph 9.2 mph 64 % 0.00 in
20:24 42.9 °F 31.6 °F 30.12 in SSW 4.8 mph 8.1 mph 64 % 0.00 in
20:29 42.9 °F 31.6 °F 30.12 in South 7.0 mph 7.0 mph 64 % 0.00 in
20:34 42.9 °F 31.6 °F 30.12 in South 4.4 mph 7.0 mph 64 % 0.00 in
20:35 42.9 °F 31.9 °F 30.12 in South 4.3 mph 6.9 mph 65 % 0.00 in
20:40 42.9 °F 31.9 °F 30.11 in SSW 5.2 mph 9.2 mph 65 % 0.00 in
20:45 42.9 °F 32.3 °F 30.11 in South 0.4 mph 3.5 mph 66 % 0.00 in
20:50 42.8 °F 32.6 °F 30.11 in SSW 6.0 mph 10.4 mph 67 % 0.00 in
20:55 42.8 °F 32.6 °F 30.11 in South 4.8 mph 6.9 mph 67 % 0.00 in
21:00 42.8 °F 32.6 °F 30.11 in South 2.0 mph 4.6 mph 67 % 0.00 in
21:05 42.8 °F 32.6 °F 30.11 in SSW 2.7 mph 3.5 mph 67 % 0.00 in
21:10 42.7 °F 32.5 °F 30.11 in SW 3.5 mph 8.1 mph 67 % 0.00 in
21:15 42.7 °F 32.5 °F 30.11 in SSE 1.8 mph 3.5 mph 67 % 0.00 in
21:20 42.7 °F 32.5 °F 30.11 in WSW 3.1 mph 5.8 mph 67 % 0.00 in
21:25 42.7 °F 32.5 °F 30.11 in SW 2.1 mph 5.0 mph 67 % 0.00 in
21:30 42.7 °F 32.9 °F 30.11 in SSE 3.2 mph 4.6 mph 68 % 0.00 in
21:35 42.7 °F 32.9 °F 30.11 in South 0.6 mph 3.5 mph 68 % 0.00 in
21:40 42.7 °F 32.9 °F 30.11 in WSW 5.7 mph 8.1 mph 68 % 0.00 in
21:45 42.7 °F 32.9 °F 30.11 in SW 1.6 mph 3.5 mph 68 % 0.00 in
21:50 42.6 °F 33.1 °F 30.12 in SW 1.1 mph 4.0 mph 69 % 0.00 in
21:55 42.7 °F 33.2 °F 30.12 in South 2.9 mph 5.8 mph 69 % 0.00 in
22:00 42.7 °F 33.2 °F 30.12 in SSW 2.3 mph 5.0 mph 69 % 0.00 in
22:06 42.6 °F 33.5 °F 30.11 in SSW 1.7 mph 3.5 mph 70 % 0.00 in
22:11 42.6 °F 33.5 °F 30.12 in SW 1.6 mph 3.5 mph 70 % 0.00 in
22:16 42.6 °F 33.5 °F 30.12 in Calm   1.2 mph 70 % 0.00 in
22:21 42.6 °F 33.9 °F 30.12 in WSW 2.3 mph 3.5 mph 71 % 0.00 in
22:26 42.5 °F 33.8 °F 30.12 in SW 2.5 mph 3.5 mph 71 % 0.00 in
22:31 42.5 °F 33.4 °F 30.14 in WSW 0.8 mph 3.5 mph 70 % 0.00 in
22:36 42.5 °F 33.4 °F 30.15 in West 1.4 mph 3.5 mph 70 % 0.00 in
22:41 42.5 °F 33.4 °F 30.15 in SW 2.0 mph 3.5 mph 70 % 0.00 in
22:46 42.5 °F 33.4 °F 30.15 in SW 1.6 mph 3.5 mph 70 % 0.00 in
22:51 42.6 °F 33.5 °F 30.15 in SW 1.2 mph 3.5 mph 70 % 0.00 in
22:56 42.5 °F 33.4 °F 30.14 in Calm   1.2 mph 70 % 0.00 in
23:01 42.5 °F 33.4 °F 30.13 in SW 1.0 mph 3.5 mph 70 % 0.00 in
23:06 42.6 °F 33.5 °F 30.13 in South 0.8 mph 3.5 mph 70 % 0.00 in
23:11 42.6 °F 33.5 °F 30.13 in Calm   1.2 mph 70 % 0.00 in
23:16 42.6 °F 33.9 °F 30.14 in Calm     71 % 0.00 in
23:21 42.6 °F 34.2 °F 30.14 in Calm     72 % 0.00 in
23:26 42.6 °F 34.2 °F 30.13 in Calm   2.3 mph 72 % 0.00 in
23:31 42.5 °F 34.5 °F 30.13 in Calm   1.2 mph 73 % 0.00 in
23:36 42.5 °F 34.5 °F 30.12 in SSE 0.6 mph 2.3 mph 73 % 0.00 in
23:41 42.4 °F 34.7 °F 30.14 in SSE 1.3 mph 2.3 mph 74 % 0.00 in
23:46 42.3 °F 34.9 °F 30.14 in SSE 0.7 mph 2.3 mph 75 % 0.00 in
23:51 42.3 °F 35.6 °F 30.12 in SSE 0.7 mph 2.3 mph 77 % 0.00 in
23:56 42.1 °F 35.7 °F 30.11 in SSE 0.8 mph 2.3 mph 78 % 0.00 in
Crab Meadow Weather
Compliments of Weather Underground - 3 mb

Script developed by  Jim McMurry - jmcmurry@mwt.net Adapted for the template by  Wim van der Kuil - Leuven-Template.eu

Astronomy: Earth is 93 million miles away from the Sun.